STARLINK-32278, 60356

Orbit data source: Space-Track

STARLINK-32278, 60356 is a payload satellite owned by SpaceX/Seattle (US) in LEO that was launched on Sun, 04 Aug 2024 UTC via an FALCON 9 launch vehicle from the Air Force Western Test Range (AFWTR). Payload-class satellites include a variety of spacecraft equipped with specific instruments for various scientific and technological missions. These include communications satellites like Starlink; space stations such as the ISS; scientific satellites like the Hubble; Earth observation satellites from companies like Planet Labs, Umbra, and HawkEye 360; GPS; miniature CubeSats for education and research; and military/defense satellites.

Loading next visibility...
Identifier
60356, 2024-138B
Orbit
LEO
Country
Flag of USUS
Related business
Manufacturer
SpaceX/Seattle
Mission
Operational Commercial Communications
Bus & Motor
STARLINK V2M, Unknown motor
Mass
730 kg wet, ~700 kg dry
Launch date (UTC)
2024-08-04 (1 year ago)
Launch vehicle
FALCON 9
Launch site
Air Force Western Test Range (AFWTR)
Object type
Payload
Rocket body
Debris
Shape & HBR
Box + 2 Pan, 14.5 m
Radar Cross Section
33.884 m², Large (>1 m²)

Expand to show TLE details & history
Last TLE update: 7 hours ago

TLE from 7 hours ago
0 STARLINK-32278
1 60356U 24138B   25258.58628011 -.00000326  00000-0  11034-5 0  9997
2 60356  53.1630  43.2776 0001034  92.3569 267.7550 15.30202078 63819
Epoch: 2025-09-15T14:04Z
TLE epoch observation values (Epoch: 2025-09-15T14:04:14.601Z)
Latitude
-0.00004°
Longitude
-162.57207°
Altitude
476.137 km
Speed
7.629 km/s
True Right ascension
02h 53m 06s
True Declination
0° 00' 00"
Sunlit
Object was in full shadow at epoch
Visualization orbit readout
Latitude
Unknown
Longitude
Unknown
Altitude
Unknown
Speed
Unknown
Apparent Right ascension
Unknown
Apparent Declination
Unknown
Sunlit
N/A
Visualization observer readout
Local Sidereal Time
13:55:15
Azimuth
Unknown
Elevation
Unknown
Doppler factor
Unknown
Orbital elements
Apogee altitude
476.173 km
Perigee altitude
474.756 km
Semi-major axis
6,853.602 km
Eccentricity
0.0001
Inclination
53.163°
RAAN
43.2776°
Arg. of periapsis
92.3569°
True anomaly
267.74316°
Mean anomaly
267.755°
Eccentric anomaly
267.74908°
Mean motion
3.82529 °/min
Orbital period
94.11 mins
BSTAR
0.0000011034
Loading maneuver chart data...
Computing Atmospheric mass density...
Loading historical data...
Loading historical data...
Loading historical data...
Loading historical data...
Loading historical data...
Loading historical data...
Loading historical data...

Documentation

Showing up to 5 results
|